AO-07 1 07530U 74089B 22181.59840487 -.00000050 00000-0 -26943-4 0 9997 2 07530 101.9044 161.5099 0012450 18.6544 95.5649 12.53655553179114 UO-11 1 14781U 84021B 22181.53493342 .00000329 00000-0 45945-4 0 9998 2 14781 97.6174 168.3729 0006819 281.4954 78.5495 14.83695001 41987 LO-19 1 20442U 90005G 22181.85559068 .00000013 00000-0 21323-4 0 9995 2 20442 98.7945 146.9220 0012634 126.1025 234.1330 14.33067001695082 HUBBLE 1 20580U 90037B 22181.18775999 .00001143 00000-0 56594-4 0 9995 2 20580 28.4702 84.4181 0002593 169.1822 321.5441 15.10616889568413 MET-2/21 1 22782U 93055A 22181.58625515 .00000018 00000-0 27470-5 0 9998 2 22782 82.5490 3.8141 0021292 313.2564 108.9470 13.83856899455821 AO-27 1 22825U 93061C 22181.59725697 .00000016 00000-0 24149-4 0 9993 2 22825 98.8855 212.9123 0008772 20.9666 339.1873 14.30177630500031 IO-26 1 22826U 93061D 22181.82711817 .00000025 00000-0 27252-4 0 9997 2 22826 98.8799 213.0254 0009027 6.8429 353.2875 14.30523914500578 FO-29 1 24278U 96046B 22181.59428862 -.00000027 00000-0 10523-4 0 9991 2 24278 98.5150 203.4774 0349252 249.1553 107.1861 13.53116697277387 NOAA-15 1 25338U 98030A 22181.67993487 .00000108 00000-0 63375-4 0 9995 2 25338 98.6427 211.0421 0009183 257.4699 102.5454 14.26144375255159 GO-32 1 25397U 98043D 22181.42984398 .00000003 00000-0 21047-4 0 9992 2 25397 98.8185 131.9325 0002400 78.6423 281.5025 14.23759295245277 ISS 1 25544U 98067A 22181.74337650 .00007747 00000-0 14467-3 0 9999 2 25544 51.6441 269.4482 0004518 317.1696 147.9084 15.49779362347289 NO-44 1 26931U 01043C 22181.59433862 -.00000005 00000-0 29667-4 0 9993 2 26931 67.0519 24.4794 0007427 261.6863 98.3396 14.30712260 83288 SO-50 1 27607U 02058C 22181.59988255 .00000181 00000-0 45447-4 0 9990 2 27607 64.5547 261.6713 0079110 291.9031 67.3674 14.76146860 50319 CO-55 1 27844U 03031E 22181.58022404 .00000104 00000-0 66119-4 0 9993 2 27844 98.6777 189.0678 0011068 67.1349 293.0996 14.22460222985775 CO-57 1 27848U 03031J 22181.26585132 .00000089 00000-0 59885-4 0 9998 2 27848 98.6822 189.2754 0011011 80.6478 279.5944 14.22016161985500 RS-22 1 27939U 03042A 22181.83125025 .00000349 00000-0 70552-4 0 9998 2 27939 98.1934 322.5491 0013421 160.7869 199.3843 14.67374399 3003 NOAA-18 1 28654U 05018A 22181.66266200 .00000099 00000-0 77298-4 0 9996 2 28654 98.9487 252.0881 0013188 295.7654 64.2156 14.12747549881934 CO-58 1 28895U 05043F 22181.77487933 .00000360 00000-0 76945-4 0 9990 2 28895 98.1086 312.9489 0018022 99.3689 260.9552 14.64365476889593 Falconsat-3 1 30776U 07006E 22181.04576748 .00020386 00000-0 30311-3 0 9991 2 30776 35.4289 177.7264 0004115 217.2042 142.8406 15.54225522851540 CO-65 1 32785U 08021C 22181.46190519 .00000784 00000-0 87646-4 0 9999 2 32785 97.6578 151.8985 0012351 183.4335 176.6800 14.89627504768426 AAUSAT2 1 32788U 08021F 22181.46708328 .00000997 00000-0 90103-4 0 9993 2 32788 97.5336 166.3220 0012973 79.3666 280.9017 14.97570092770388 DO-64 1 32789U 08021G 22181.56945861 .00004779 00000-0 26614-3 0 9997 2 32789 97.3371 207.3948 0008129 278.0738 81.9572 15.14057525773913 CO-66 1 32791U 08021J 22181.44764095 .00000911 00000-0 93422-4 0 9991 2 32791 97.6118 157.3645 0013670 140.4503 219.7717 14.92721426769139 RS-30 1 32953U 08025A 22181.57782514 .00000024 00000-0 10000-3 0 9990 2 32953 82.5025 175.7744 0018147 229.6135 130.3365 12.43111405639966 PRISM 1 33493U 09002B 22181.55411523 .00001582 00000-0 13265-3 0 9999 2 33493 98.2252 168.8697 0016408 127.5214 232.7502 14.99892392730948 NOAA-19 1 33591U 09005A 22181.66546564 .00000123 00000-0 91342-4 0 9990 2 33591 99.1465 216.0794 0014528 147.5805 212.6261 14.12582332690316 SRMSAT 1 37841U 11058D 22181.34191779 .00000303 00000-0 21379-4 0 9995 2 37841 19.9702 177.0117 0012030 125.2032 264.9491 14.10758201553061 HRBE 1 37855U 11061F 22181.27149922 .00003396 00000-0 15344-3 0 9998 2 37855 101.7115 307.1296 0152534 23.9731 336.8490 15.12591935583177 RS-40 1 38735U 12041C 22181.61971005 -.00000006 00000-0 -11693-3 0 9998 2 38735 82.4778 257.2821 0016685 346.6052 13.4580 12.42585894450157 ZACUBE-1 1 39417U 13066B 22181.46253819 .00000930 00000-0 11937-3 0 9998 2 39417 97.6368 152.3721 0057943 3.7355 356.4280 14.82383748465053 Delfi-N3xt 1 39428U 13066N 22181.80692370 .00000702 00000-0 11579-3 0 9996 2 39428 97.8147 115.5920 0115803 234.8553 124.1760 14.69228708460676 GOMX-1 1 39430U 13066Q 22181.67984942 .00000721 00000-0 13694-3 0 9994 2 39430 97.8093 88.1238 0149563 3.8397 356.3914 14.60220211458226 LO-74 1 39440U 13066AA 22181.46275899 .00000758 00000-0 10897-3 0 9998 2 39440 97.7267 138.4727 0080369 89.2289 271.8130 14.77034167462202 AO-73 1 39444U 13066AE 22181.46970469 .00001118 00000-0 13865-3 0 9996 2 39444 97.6248 154.7859 0056430 351.9199 8.1101 14.83476260463450 SPROUT 1 39770U 14029E 22181.33471607 .00004038 00000-0 41373-3 0 9993 2 39770 97.9439 298.3530 0009549 51.9599 308.2473 14.91020197439584 DTUSAT-2 1 40030U 14033W 22181.54014972 .00000915 00000-0 10077-3 0 9997 2 40030 97.9379 114.3601 0012235 18.5358 341.6302 14.89998937435594 EO-80 1 40032U 14033Y 22181.44546488 .00000961 00000-0 10557-3 0 9994 2 40032 97.9382 114.2786 0012203 19.6306 340.5379 14.89969392435554 HODOYOSHI-1 1 40299U 14070B 22181.84494626 .00003692 00000-0 14146-3 0 9992 2 40299 97.2431 249.5786 0014118 90.6041 20.9529 15.27048423425103 FIREBIRD FU3 1 40377U 15003B 22181.57752125 .00007525 00000-0 22555-3 0 9999 2 40377 99.0985 49.4182 0099168 341.5202 18.2441 15.30124444410420 FIREBIRD FU4 1 40378U 15003C 22181.60225912 .00007296 00000-0 21815-3 0 9996 2 40378 99.0990 49.6617 0099071 341.0727 18.6835 15.30223853410438 GRIFEX 1 40379U 15003D 22181.85232277 .00004620 00000-0 16495-3 0 9992 2 40379 99.1101 35.7414 0115524 22.8679 337.7638 15.23425028409677 XW-2A 1 40903U 15049E 22181.86373569 .00014312 00000-0 22234-3 0 9993 2 40903 97.1780 240.4195 0010907 77.4365 39.2120 15.53989290381341 XW-2C 1 40906U 15049H 22181.57776226 .00003804 00000-0 18370-3 0 9991 2 40906 97.4917 184.8850 0012782 319.5971 155.7961 15.19200773374910 XW-2D 1 40907U 15049J 22181.91462961 .00004251 00000-0 20107-3 0 9996 2 40907 97.4906 185.2109 0011622 314.0486 107.6538 15.19868744375010 LILACSAT-2 1 40908U 15049K 22181.89035677 .00001896 00000-0 10239-3 0 9991 2 40908 97.5155 182.3396 0014644 336.7801 108.7467 15.15864354374520 XW-2E 1 40909U 15049L 22181.54458476 .00006818 00000-0 28624-3 0 9996 2 40909 97.4641 189.3981 0009844 292.9276 189.6389 15.23743271375404 XW-2F 1 40910U 15049M 22181.87060366 .00006459 00000-0 27550-3 0 9999 2 40910 97.4717 188.8599 0010916 291.5121 188.7347 15.23217804375227 XW-2B 1 40911U 15049N 22181.94106216 .00004136 00000-0 19633-3 0 9996 2 40911 97.4899 185.8353 0011604 315.5548 107.9317 15.19754909374900 DCBB 1 40912U 15049P 22181.89949844 .00007212 00000-0 28004-3 0 9993 2 40912 97.4359 193.2373 0010867 252.1411 155.6189 15.26334153375802 TW-1A 1 40928U 15051D 22181.63874500 .00027029 00000-0 32595-3 0 9999 2 40928 97.0357 204.1834 0005406 356.9828 122.8761 15.60731934380292 IO-86 1 40931U 15052B 22180.20158488 .00001018 00000-0 52271-4 0 9990 2 40931 6.0014 85.2830 0013779 335.8984 24.0539 14.76824172365080 AO-85 1 40967U 15058D 22180.22931330 .00001061 00000-0 12668-3 0 4068 2 40967 64.7758 36.2088 0194103 196.6635 162.8037 14.77446027 62407 ATHENOXAT-1 1 41168U 15077C 22181.59566640 .00009532 00000-0 38030-3 0 9991 2 41168 14.9890 352.9862 0008580 66.4750 352.1419 15.21267619362317 ChubuSat-2 1 41338U 16012B 22181.56288479 .00000931 00000-0 63724-4 0 9991 2 41338 31.0034 300.4242 0013419 282.8975 77.0161 15.01422460349458 ChubuSat-3 1 41339U 16012C 22181.68798294 .00001313 00000-0 92455-4 0 9994 2 41339 31.0123 296.5583 0013462 293.2014 66.7192 15.01500719349474 Horyu-4 1 41340U 16012D 22181.51850400 .00001468 00000-0 98898-4 0 9994 2 41340 31.0043 275.6859 0013253 330.4732 29.5156 15.03389326349692 e-st@r-II 1 41459U 16025D 22181.44677900 .00008415 00000-0 36487-3 0 9997 2 41459 98.1855 347.5621 0144441 224.7467 134.1994 15.13643592339464 AAUSAT4 1 41460U 16025E 22181.44705153 .00015407 00000-0 58560-3 0 9996 2 41460 98.1769 353.8792 0125813 200.2669 159.3145 15.19727440339912 LO-87 1 41557U 16033B 22181.55675042 .00008797 00000-0 26130-3 0 9999 2 41557 97.3893 279.2783 0009863 338.0412 147.8201 15.34970664339393 NuSat2 1 41558U 16033C 22181.89252955 .00007726 00000-0 21640-3 0 9993 2 41558 97.4092 285.3898 0009091 324.6162 155.3563 15.36867745339715 Lapan A3 1 41603U 16040E 22181.86194253 .00000918 00000-0 44635-4 0 9991 2 41603 97.2052 218.3065 0014728 110.9517 354.7170 15.20704809334072 Pratham 1 41783U 16059A 22181.55571001 .00000198 00000-0 46761-4 0 9998 2 41783 97.9122 222.5857 0034557 131.0655 229.3542 14.63367365307541 TY-1 1 41844U 16066D 22181.56868373 .00008859 00000-0 30015-3 0 9992 2 41844 97.3883 193.5148 0010940 237.7774 237.3705 15.30744724313611 CAS-2T 1 41847U 16066G 22181.41919529 .00000524 00000-0 88135-4 0 9997 2 41847 98.5505 246.0771 0364090 170.9274 189.8737 14.38603694296214 EO-88 1 42017U 17008BX 22181.14738685 .00007496 00000-0 22317-3 0 9990 2 42017 97.2682 247.0790 0005292 179.4864 180.6386 15.34978838299026 CAS-4B 1 42759U 17034B 22181.93643256 .00002471 00000-0 15413-3 0 9995 2 42759 43.0172 258.3783 0009574 5.4536 163.7191 15.12002225278397 CAS-4A 1 42761U 17034D 22181.43076491 .00002404 00000-0 14997-3 0 9996 2 42761 43.0182 259.9425 0009491 5.1034 97.7178 15.12085660278327 NIUSat 1 42766U 17036B 22181.57165133 .00003594 00000-0 13997-3 0 9990 2 42766 97.2002 218.9250 0011536 281.1229 78.8713 15.26549887278809 Aalto 1 1 42775U 17036L 22181.55036394 .00002717 00000-0 10899-3 0 9998 2 42775 97.1959 218.8065 0010500 280.8073 79.1984 15.25776933278778 URSA MAIOR 1 42776U 17036M 22181.59204306 .00003213 00000-0 12622-3 0 9991 2 42776 97.1973 219.5876 0010119 279.1282 80.8812 15.26348541278817 Max Valier Sat 1 42778U 17036P 22181.55967755 .00003479 00000-0 13312-3 0 9994 2 42778 97.2034 222.2111 0008695 279.9879 80.0379 15.27185067278900 Pegasus 1 42784U 17036V 22181.66168633 .00004746 00000-0 17032-3 0 9992 2 42784 97.1973 223.1665 0008071 280.0604 79.9725 15.29124066279030 NUDATSat 1 42787U 17036Y 22181.60698623 .00014173 00000-0 43132-3 0 9991 2 42787 97.2024 227.3069 0006368 258.3063 101.7428 15.34095794279113 SUCHAI 1 1 42788U 17036Z 22181.38075373 .00005715 00000-0 19351-3 0 9996 2 42788 97.1981 224.5606 0007310 273.4967 86.5438 15.30942531279162 SKCUBE 1 42789U 17036AA 22181.57998268 .00005026 00000-0 17460-3 0 9999 2 42789 97.1979 224.2069 0007392 274.7586 85.2811 15.30170802279087 VZLUSAT 1 1 42790U 17036AB 22181.55046558 .00007941 00000-0 24414-3 0 9990 2 42790 97.2005 227.2170 0006349 260.7536 99.2989 15.33928381279253 VENTA 1 1 42791U 17036AC 22181.42131177 .00004346 00000-0 15417-3 0 9998 2 42791 97.1981 223.9309 0007158 277.0753 82.9673 15.29562032279042 Robusta 1B 1 42792U 17036AD 22181.59664077 .00005697 00000-0 19441-3 0 9998 2 42792 97.1979 224.7941 0006925 274.1474 85.8976 15.30695577279131 D-SAT 1 42794U 17036AF 22181.55330454 .00001659 00000-0 14355-3 0 9998 2 42794 97.4500 186.2712 0124132 42.0172 319.0488 14.92692009273433 TechnoSat 1 42829U 17042E 22181.83308601 .00000373 00000-0 42007-4 0 9992 2 42829 97.4196 35.1903 0013083 328.7733 31.2709 14.91891129270086 QIKCOM-1 1 42983U 98067NF 22181.28691048 .00166365 23507-4 25637-3 0 9992 2 42983 51.6262 112.8744 0002819 64.2078 295.9225 16.03879818266991 AO-91 1 43017U 17073E 22181.61076049 .00001378 00000-0 10738-3 0 9991 2 43017 97.6741 75.2669 0249304 144.4754 217.3350 14.81456786249069 PICSAT 1 43132U 18004X 22181.16826699 .00006306 00000-0 20846-3 0 9995 2 43132 97.3721 257.4775 0005952 320.6251 39.4557 15.31703509248350 AO-92 1 43137U 18004AC 22181.44169538 .00003998 00000-0 14195-3 0 9997 2 43137 97.3686 256.4823 0006225 324.9700 35.1131 15.29602780248333 TianYi 2 1 43155U 18008A 22181.58194831 .00005356 00000-0 28507-3 0 9992 2 43155 97.3522 239.5589 0018042 98.4753 40.2378 15.15508267245263 Zhou Enlai 1 43156U 18008B 22181.60270204 .00005490 00000-0 29413-3 0 9991 2 43156 97.3573 239.4583 0015195 99.2992 58.9526 15.15299128245199 TianYi 6 1 43158U 18008D 22181.45660794 .00004438 00000-0 24576-3 0 9999 2 43158 97.3524 237.2698 0014535 98.4053 26.0269 15.14229968245077 S-Net D 1 43186U 18014G 22181.52127752 .00000315 00000-0 31609-4 0 9993 2 43186 97.6572 87.0127 0009472 253.9461 106.0719 14.97947216240872 S-Net B 1 43187U 18014H 22181.72182447 .00000325 00000-0 32497-4 0 9995 2 43187 97.6568 87.1604 0009499 252.9967 107.0215 14.97945381240905 S-Net A 1 43188U 18014J 22181.52170944 .00000327 00000-0 32613-4 0 9995 2 43188 97.6573 87.0281 0009480 253.9340 106.0838 14.97944485240878 S-Net C 1 43189U 18014K 22181.72283606 .00000366 00000-0 35931-4 0 9997 2 43189 97.6566 87.1499 0009515 252.8914 107.1267 14.97942029239459 FMN 1 1 43192U 18015A 22181.49352514 .00019059 00000-0 49539-3 0 9998 2 43192 97.5354 326.9591 0009492 347.1069 57.0531 15.38941654245450 Shaonian Xing 1 43199U 18015H 22181.94204306 .00010446 00000-0 31291-3 0 9997 2 43199 97.5147 322.4975 0012289 359.5971 116.7273 15.34631374245515 SurfSat 1 43614U 18070B 22181.57290848 .00019985 00000-0 28570-3 0 9998 2 43614 93.0313 104.3261 0008436 346.6088 13.4951 15.56136123213105 CP-7 DAVE 1 43615U 18070C 22181.33494932 .00016838 00000-0 25276-3 0 9997 2 43615 93.0300 104.0676 0009188 351.2917 8.8185 15.54807816213038 ELFIN-B 1 43616U 18070D 22181.78275431 .00053208 00000-0 45147-3 0 9999 2 43616 93.0203 105.5388 0003993 351.9663 8.1543 15.69482983213446 ELFIN-A 1 43617U 18070E 22181.76535088 .00067091 00000-0 50880-3 0 9990 2 43617 93.0264 106.9141 0002353 355.1353 4.9896 15.72151596213494 CubeBel-1 1 43666U 18083E 22181.86665598 .00006331 00000-0 26822-3 0 9998 2 43666 97.4194 210.3994 0010965 287.3335 199.9379 15.23449903203520 Changshagaoxin 1 43669U 18083H 22181.85951684 .00006034 00000-0 26812-3 0 9993 2 43669 97.4138 206.3287 0007581 288.5607 189.0629 15.21871442203349 Ten-Koh 1 43677U 18084G 22181.36376931 .00000620 00000-0 68349-4 0 9992 2 43677 97.9661 311.5322 0014828 225.1520 134.8494 14.91124585199602 PO-101 1 43678U 18084H 22181.45858650 .00000539 00000-0 58730-4 0 9998 2 43678 97.9721 314.8772 0008618 238.3617 121.6782 14.92188703199795 IRVINE 01 1 43693U 18088D 22181.34640317 .00016549 00000-0 43144-3 0 9996 2 43693 85.0297 302.0987 0012378 69.3806 290.8771 15.38633070202206 QO-100 1 43700U 18090A 22181.59534297 .00000153 00000-0 00000-0 0 9999 2 43700 0.0189 352.9846 0001047 141.2579 24.5536 1.00275442 13163 Reaktor Hello World 1 43743U 18096AA 22181.44525552 .00005218 00000-0 15930-3 0 9998 2 43743 97.3531 261.2582 0014792 19.6185 340.5624 15.34246571199955 MinXSS-2 1 43758U 18099A 22181.47956926 .00001797 00000-0 15912-3 0 9991 2 43758 97.6247 249.0827 0013943 215.1596 144.8708 14.97429807195058 AO-95 1 43770U 18099N 22181.42851422 .00000569 00000-0 55033-4 0 9990 2 43770 97.6205 247.4420 0013011 228.2125 131.7985 14.96487755194951 RANGE-B 1 43772U 18099Q 22181.15017947 .00001467 00000-0 13188-3 0 9990 2 43772 97.6323 248.8745 0012647 212.5252 147.5192 14.97132781194930 RANGE-A 1 43773U 18099R 22181.42105241 .00000351 00000-0 36198-4 0 9994 2 43773 97.6129 246.2968 0012349 214.0919 145.9511 14.96069820194939 MOVE-II 1 43780U 18099Y 22181.44369915 .00001420 00000-0 12566-3 0 9994 2 43780 97.6231 248.6096 0012317 222.6864 137.3402 14.97799339195007 SNUSat 2 1 43782U 18099AA 22181.13988261 .00001594 00000-0 14458-3 0 9997 2 43782 97.6210 247.6259 0011478 211.1081 148.9463 14.96652995194938 SnugLite 1 43784U 18099AC 22181.37620637 .00000986 00000-0 90815-4 0 9991 2 43784 97.6162 247.4963 0013907 221.0245 138.9932 14.96864402194991 ITASat 1 1 43786U 18099AE 22181.15313199 .00000780 00000-0 73349-4 0 9996 2 43786 97.6235 248.0992 0013661 221.0075 139.0120 14.96629787194953 EAGLET 1 1 43790U 18099AJ 22181.18059837 .00000613 00000-0 58520-4 0 9999 2 43790 97.6217 248.6601 0012197 224.6323 135.3918 14.96791289194691 ESEO 1 43792U 18099AL 22181.18698013 .00000553 00000-0 54045-4 0 9997 2 43792 97.6172 247.8665 0012240 221.4922 138.5371 14.96208694194739 CSIM 1 43793U 18099AM 22181.41129473 .00002398 00000-0 20512-3 0 9993 2 43793 97.6260 249.4803 0011326 208.1191 151.9422 14.98492707194822 Astrocast 0.1 1 43798U 18099AS 22181.42804461 .00000630 00000-0 58631-4 0 9997 2 43798 97.6242 249.3787 0011399 197.8887 162.1936 14.97698038195057 JO-97 1 43803U 18099AX 22181.43401470 .00000703 00000-0 65805-4 0 9990 2 43803 97.6191 248.1319 0013799 219.9768 140.0439 14.97131153195014 Suomi 100 1 43804U 18099AY 22181.72005113 .00001261 00000-0 11434-3 0 9995 2 43804 97.6182 248.3300 0014055 217.9946 142.0285 14.97029776195062 Al Farabi 2 1 43805U 18099AZ 22181.63533121 .00001499 00000-0 13296-3 0 9992 2 43805 97.6210 248.7456 0013474 218.7471 141.2785 14.97612594195070 CHOMPTT 1 43855U 18104G 22181.60876198 .00003378 00000-0 12279-3 0 9993 2 43855 85.0344 42.3794 0015096 180.2732 179.8507 15.27751784196734 ISAT 1 43879U 18111D 22181.68960578 .00002010 00000-0 17471-3 0 9992 2 43879 97.6652 87.0610 0010390 277.0863 82.9178 14.98067630189632 UWE-4 1 43880U 18111E 22181.69156010 .00001961 00000-0 16991-3 0 9993 2 43880 97.6684 87.7713 0009603 277.9931 82.0202 14.98222129189680 Sparrow 1 43881U 18111F 22181.50712850 .00001030 00000-0 91259-4 0 9992 2 43881 97.6703 87.8227 0010021 278.4322 81.5765 14.98379081191669 Lume 1 1 43908U 18111AJ 22181.58658234 .00004383 00000-0 14988-3 0 9992 2 43908 97.1903 68.9822 0019499 32.8064 327.4384 15.30598037195406 FO-99 1 43937U 19003F 22181.56945503 .00005928 00000-0 19912-3 0 9999 2 43937 97.1286 214.4108 0022603 106.5841 253.7886 15.30956651191987 MYSat 1 1 44045U 18092F 22180.73775367 .00027668 00000-0 39918-3 0 9997 2 44045 51.6325 11.3372 0009076 151.9961 208.1520 15.55722908189787 AstroCast 0.2 1 44083U 19018F 22181.66954452 .00006415 00000-0 24420-3 0 9994 2 44083 97.3209 240.2805 0012143 84.4467 275.8156 15.27017380180508 AISTechSat 3 1 44103U 19018AB 22181.45841418 .00004052 00000-0 15189-3 0 9998 2 44103 97.3074 240.4488 0013874 91.4892 268.7937 15.27732286180633 AISat 1 1 44104U 19018AC 22181.26849127 .00003911 00000-0 11010-3 0 9995 2 44104 97.3965 264.4529 0053658 87.8895 272.8492 15.35623079181564 Prox-1 1 44339U 19036A 22181.22101332 .00001557 00000-0 30518-3 0 9998 2 44339 24.0001 112.8734 0010202 358.1270 1.9183 14.55113807160216 Oculus-ASR 1 44348U 19036K 22181.12045446 .00043057 -54568-5 38998-3 0 9995 2 44348 28.5013 104.6982 0235253 93.8455 268.9072 15.38227884166496 Armadillo 1 44352U 19036P 22181.68847238 .00112120 -32319-5 43615-3 0 9990 2 44352 28.5230 18.9792 0112789 231.3011 127.7465 15.76146385167344 NO-104 1 44354U 19036R 22181.03335998 .00048074 -54042-5 41267-3 0 9990 2 44354 28.5246 91.0417 0224697 112.5412 249.9131 15.41363705166622 Move-IIb 1 44398U 19038N 22181.60192006 .00007635 00000-0 36770-3 0 9994 2 44398 97.6283 151.0750 0023750 82.9510 277.4411 15.18788764165032 SONATE 1 44400U 19038Q 22181.60330750 .00003110 00000-0 17024-3 0 9993 2 44400 97.6399 150.1672 0025462 87.4754 272.9381 15.14726619164929 BeeSat 9 1 44412U 19038AC 22181.44615135 .00003412 00000-0 17511-3 0 9997 2 44412 97.6360 150.8272 0022383 89.7098 270.6700 15.17008270164668 JAISAT-1 1 44419U 19038F 22181.55969651 .00003182 00000-0 16145-3 0 9997 2 44419 97.6362 151.7892 0021334 86.7232 273.6441 15.17484373165047 LightSail-2 1 44420U 19036AC 22181.32350592 .00027985 00000-0 34956-2 0 9996 2 44420 24.0001 47.3882 0007417 115.6934 244.4330 14.80898895158995 Taurus 1 1 44530U 19059C 22181.76629752 .00001518 00000-0 42806-3 0 9996 2 44530 98.5482 280.4057 0015099 82.8173 277.4718 14.47121209147776 Duchifat 3 1 44854U 19089C 22181.61039388 .00002489 00000-0 19647-3 0 9997 2 44854 36.9670 22.3423 0009829 327.1262 32.8884 15.01155415139919 OPS-SAT 1 44878U 19092F 22181.49174148 .00003286 00000-0 15459-3 0 9990 2 44878 97.4794 5.3300 0010890 297.1584 62.8541 15.20223530140170 TO-108 1 44881U 19093C 22181.47674449 .00000425 00000-0 60536-4 0 9991 2 44881 97.8930 260.4987 0015871 139.5252 220.7142 14.81742313136707 FloripaSat 1 1 44885U 19093G 22181.43291515 .00001465 00000-0 18569-3 0 9993 2 44885 97.8970 261.7707 0015303 145.6652 214.5548 14.83184155136775 RS-44 1 44909U 19096E 22181.55975882 .00000031 00000-0 88824-4 0 9992 2 44909 82.5204 221.5684 0216216 289.2081 68.5737 12.79713730117189 BY70-2 1 45857U 20042B 22181.47583582 .00005168 00000-0 68966-3 0 9991 2 45857 97.9551 258.1907 0012272 79.4948 280.7585 14.79956878107382 UPMSat 2 1 46276U 20061E 22181.42283607 .00001665 00000-0 84502-4 0 9991 2 46276 97.3914 251.9507 0003103 110.6206 249.5362 15.18271619100847 AmicalSat 1 46287U 20061R 22181.44410737 .00001818 00000-0 10720-3 0 9991 2 46287 97.4460 250.8730 0001867 189.5749 170.5446 15.12796548100432 SALSAT 1 46495U 20068K 22181.46458751 .00001101 00000-0 82848-4 0 9995 2 46495 97.7294 122.7690 0015278 230.8004 129.1866 15.04553575 96148 BY70-3 1 46839U 20079N 22181.74720009 .00015229 00000-0 35313-3 0 9998 2 46839 97.1981 253.6694 0003765 275.3292 203.9203 15.42489902 92298 CAPE 3 1 47309U 21002A 22181.59572972 .00003411 00000-0 14606-3 0 9997 2 47309 60.6840 315.1104 0022787 344.8018 15.2382 15.24957565 80455 AO-109 1 47311U 21002C 22181.84026552 .00003433 00000-0 14501-3 0 9994 2 47311 60.6863 311.8452 0018695 348.1757 11.8890 15.25470425 80511 MiTEE 1 1 47314U 21002F 22181.84942026 .00006835 00000-0 23870-3 0 9998 2 47314 60.6837 304.8793 0016086 336.8899 23.1466 15.30515473 80646 ExoCube 2 1 47319U 21002L 22181.58052779 .00003375 00000-0 14451-3 0 9992 2 47319 60.6847 313.9132 0020110 348.7376 11.3259 15.25032231 80419 UVSQ-SAT 1 47438U 21006AB 22181.41714975 .00002052 00000-0 11074-3 0 9992 2 47438 97.4362 240.1616 0010823 223.1806 136.8579 15.15817779 79247 YUSAT 1 1 47439U 21006AC 22181.44956280 .00003230 00000-0 17013-3 0 9991 2 47439 97.4369 240.2980 0010616 222.6840 137.3569 15.16271842 79254 SOMP 2b 1 47445U 21006AJ 22181.41813648 .00002209 00000-0 12006-3 0 9997 2 47445 97.4336 239.8179 0010393 227.7800 132.2551 15.15492320 79231 IDEASSat 1 47458U 21006AX 22181.59956654 .00002175 00000-0 11881-3 0 9997 2 47458 97.4425 240.5040 0009616 224.4940 135.5521 15.15332073 79258 Tsuru 1 47927U 98067SD 22181.55613000 .00949203 57046-3 75616-3 0 9993 2 47927 51.6214 230.7092 0011073 355.0213 5.0690 16.13775605 73904 Maya-2 1 47929U 98067SF 22181.51807001 .00752351 32348-3 72721-3 0 9995 2 47929 51.6211 231.2120 0011402 356.2499 3.8428 16.10893557 73859 GuaraniSat-1 1 47931U 98067SH 22181.41439082 .00954683 57956-3 75412-3 0 9991 2 47931 51.6189 231.2664 0010739 354.8700 5.2204 16.13907501 73889 CubeSX-Sirius-HSE 1 47951U 21022V 22181.62639898 .00002660 00000-0 17809-3 0 9990 2 47951 97.5309 80.8710 0023024 99.3495 261.0259 15.07550330 69981 CubeSX-HSE 1 47952U 21022W 22181.81231040 .00002339 00000-0 15695-3 0 9993 2 47952 97.5292 81.0734 0022716 97.9131 262.4666 15.07603325 70016 KSU-Cubesat 1 47954U 21022Y 22181.44277964 .00001596 00000-0 10767-3 0 9998 2 47954 97.5305 80.8163 0022579 99.7339 260.6441 15.07843053 69689 GRBAlpha 1 47959U 21022AD 22181.81025109 .00002387 00000-0 15994-3 0 9992 2 47959 97.5299 81.1084 0022680 98.5504 261.8294 15.07626267 68837 Orbicraft-Zorkiy 1 47960U 21022AE 22181.78370741 .00003732 00000-0 24672-3 0 9993 2 47960 97.5325 81.2205 0022323 99.2856 261.0882 15.07788570 69525 STECCO 1 47962U 21022AG 22181.86241221 .00005195 00000-0 32427-3 0 9996 2 47962 97.5293 82.0028 0017676 93.1623 331.3408 15.09796749 68896 DO-111 1 47963U 21022AH 22180.97282612 .00006606 00000-0 36795-3 0 9997 2 47963 97.5319 82.1890 0019359 89.0043 271.3407 15.13793846 68841 MO-110 1 47964U 21022AJ 22181.29541754 .00002253 00000-0 14135-3 0 9997 2 47964 97.5297 81.7054 0020450 91.6608 268.6964 15.10156942 68826 FEES 1 48082U 21022AL 22181.61979786 .00003837 00000-0 23467-3 0 9992 2 48082 97.5303 81.9488 0016656 87.6575 272.6562 15.10721697 68576 RamSat 1 48850U 98067SL 22181.57229201 .00166852 00000-0 12112-2 0 9994 2 48850 51.6377 250.5319 0003122 7.0843 353.0368 15.72339007 59392 TUBIN 1 48900U 21059X 22181.84064154 .00001757 00000-0 10032-3 0 9993 2 48900 97.5566 311.0336 0011312 63.0078 297.2307 15.14006498 55941 IT-SPINS 1 49017U 21013G 22181.60980806 .00003149 00000-0 13074-3 0 9994 2 49017 51.5997 336.7164 0008742 122.5836 237.5988 15.26824795 55794 LEDSAT 1 49069U 21073D 22181.44857428 .00000978 00000-0 65873-4 0 9994 2 49069 97.5240 254.0811 0025526 248.3442 111.5068 15.08764995 47798 CUTE 1 49263U 21088D 22181.44289776 .00001254 00000-0 96787-4 0 9997 2 49263 97.5893 249.1046 0020696 26.7252 333.5036 15.03201456 41375 Binar-1 1 49272U 98067SR 22181.46109235 .00046423 00000-0 34436-3 0 9990 2 49272 51.6328 255.0094 0007175 348.4293 11.6540 15.72366549 41717 Maya-3 1 49273U 98067SS 22181.32232714 .00127603 00000-0 52096-3 0 9997 2 49273 51.6283 250.2737 0011099 351.6297 8.4520 15.85138666 41767 Maya-4 1 49274U 98067ST 22181.41778296 .00123389 00000-0 53099-3 0 9999 2 49274 51.6311 250.1705 0010233 349.8338 10.2457 15.84067367 41777 CUAVA-1 1 49275U 98067SU 22181.42154238 .00105978 00000-0 60462-3 0 9991 2 49275 51.6341 252.2761 0008189 346.0093 101.9720 15.78048847 41697 TeikyoSat 4 1 49396U 21102B 22181.09383587 .00000548 00000-0 47822-4 0 9998 2 49396 97.5245 238.7594 0013417 212.5814 147.4584 15.00637284 34941 Z-Sat 1 49399U 21102E 22181.61655677 .00000475 00000-0 39986-4 0 9992 2 49399 97.5377 240.0430 0023151 177.8680 182.2648 15.02606899 35067 KOSEN 1 1 49402U 21102H 22181.40350815 .00000375 00000-0 31619-4 0 9994 2 49402 97.5283 239.9607 0022414 172.3148 187.8426 15.03651654 35055 HO-113 1 50466U 21131B 22181.52702059 -.00000003 00000-0 13676-4 0 9994 2 50466 98.5806 258.7748 0005921 108.7275 251.4555 14.38504289 26792 Tevel 1 50999U 22002R 22181.45822054 .00005331 00000-0 28818-3 0 9994 2 50999 97.4810 248.3194 0011616 23.0999 33.9265 15.15050820 25395 Grizu-263a 1 51025U 22002AT 22181.13785858 .00005937 00000-0 30289-3 0 9997 2 51025 97.4973 248.6443 0012735 28.4673 331.7253 15.17044493 25361 NO-116 1 51031U 22002AZ 22181.11473547 .00004251 00000-0 22395-3 0 9998 2 51031 97.4929 248.4221 0013231 27.9046 332.2893 15.16066054 25352 IRIS-A 1 51044U 22002BN 22181.42693964 .00001442 00000-0 84018-4 0 9993 2 51044 97.4817 248.0723 0009761 30.2612 329.9181 15.13546822 25372 DELFI-PQ 1 51074U 22002CU 22181.42305295 .00004108 00000-0 20724-3 0 9998 2 51074 97.5053 249.3616 0014638 55.4015 304.8597 15.17604300 25427 SO-115 1 51080U 22002DA 22181.13809905 .00003675 00000-0 19036-3 0 9992 2 51080 97.5071 249.0042 0014608 56.1187 304.1434 15.16734905 25370 SO-114 1 51081U 22002DB 22179.95112646 .00006106 00000-0 31399-3 0 9997 2 51081 97.5047 247.8062 0014644 60.0268 300.2510 15.16731094 25194 OreSat0 1 52017U 22026K 22181.56957140 .00002287 00000-0 12452-3 0 9994 2 52017 97.5015 181.2464 0025787 225.9043 134.0068 15.15174779 16178 Planetum 1 1 52738U 22057G 22181.55537047 .00002045 00000-0 12265-3 0 9991 2 52738 97.5142 295.9940 0009839 123.0727 237.1449 15.12031384 5412 Foresail-1 1 52766U 22057AL 22181.32520839 .00002038 00000-0 11773-3 0 9993 2 52766 97.5241 295.8876 0015316 108.3580 251.9318 15.13348105 5388 /EX
